Flag for Burundi Weather past 2 weeks in Gitega, Burundi

Now
79 °F

Partly sunny.


Feels Like: 80 °F
Forecast: 57 / 71 °F
Wind: 9 mph from Southeast

Location: Kigali Airport

Current Time: Jul 1, 2015 at 2:30:32 PM

Latest Report: Jul 1, 2015 at 2:00 PM


Visibility: N/A

Pressure: 30.12 "Hg

Humidity: 54%

Dew point: 61 °F

Location of GitegaLocation

Historic Weather in Gitega — Graph

°F

Gitega temperature yesterday

Maximum temperature yesterday: 82 °F (at 4:00 PM)
Minimum temperature yesterday: 59 °F (at 5:00 AM)
Average temperature yesterday: 72 °F

Past Weeks' High & Low Weather Summary

 TemperatureHumidityPressure
High82 °F (Jun 16, 3:30 PM)100% (Jun 18, 4:00 AM)30.30 "Hg (Jun 18, 4:00 AM)
Low59 °F (Jun 30, 5:00 AM)45% (Jun 23, 3:30 PM)30.01 "Hg (Jun 16, 5:00 PM)
Average71 °F75%30.18 "Hg
* Reported Jun 16 1:00 PM — Jul 1 1:00 PM, Gitega, Weather by CustomWeather, © 2015

Note: Actual official high and low records may vary slightly from our data, if they occured in-between our weather recording intervals... More about our weather records

Advertising

Gitega weather history for previous 24 hours

 ConditionsComfort  
Time TempWeatherWind HumidityBarometerVisibility
1:00 PM
Wed, Jul 1
79 °FPartly sunny.10 mph54%30.15 "HgN/A
12:30 PM77 °FPartly sunny.10 mph57%30.18 "HgN/A
12:00 PM79 °FBroken clouds.8 mph58%30.18 "HgN/A
11:30 AM77 °FScattered clouds.8 mph57%30.21 "HgN/A
11:00 AM77 °FPartly sunny.9 mph57%30.21 "HgN/A
10:30 AM75 °FScattered clouds.6 mph65%30.21 "HgN/A
10:00 AM73 °FBroken clouds.6 mph65%30.21 "HgN/A
9:30 AM75 °FMild.5 mph65%30.24 "Hg6 mi
9:00 AM73 °FMild.6 mph65%30.24 "Hg5 mi
8:30 AM72 °FMild.No wind78%30.21 "Hg5 mi
8:00 AM70 °FMild.No wind88%30.21 "Hg5 mi
7:30 AM68 °FMild.3 mph94%30.21 "Hg5 mi
7:00 AM66 °FMild.No wind100%30.18 "Hg5 mi
6:30 AM64 °FMild.No wind100%30.18 "HgN/A
6:00 AM66 °FMild.No wind94%30.18 "HgN/A
5:30 AM66 °FMild.No wind94%30.15 "HgN/A
5:00 AM66 °FPassing clouds.No wind94%30.15 "HgN/A
4:00 AM66 °FPassing clouds.No wind94%30.12 "HgN/A
3:30 AM66 °FPassing clouds.No wind94%30.12 "HgN/A
3:00 AM66 °FPassing clouds.3 mph94%30.12 "HgN/A
2:30 AM68 °FPassing clouds.No wind88%30.12 "HgN/A
2:00 AM68 °FPassing clouds.5 mph88%30.15 "HgN/A
1:00 AM68 °FPassing clouds.3 mph83%30.15 "HgN/A
12:30 AM68 °FPassing clouds.3 mph88%30.15 "HgN/A
12:00 AM68 °FPassing clouds.5 mph88%30.18 "HgN/A
11:30 PM
Tue, Jun 30
70 °FPassing clouds.3 mph83%30.18 "HgN/A
10:30 PM72 °FPassing clouds.3 mph73%30.18 "HgN/A
10:00 PM72 °FPassing clouds.No wind73%30.18 "HgN/A
9:30 PM73 °FPassing clouds.3 mph69%30.15 "HgN/A
9:00 PM73 °FPassing clouds.No wind65%30.15 "HgN/A
8:30 PM75 °FPassing clouds.3 mph61%30.15 "HgN/A
8:00 PM75 °FPassing clouds.5 mph65%30.15 "HgN/A
7:00 PM77 °FPassing clouds.3 mph61%30.12 "HgN/A
6:30 PM77 °FPassing clouds.3 mph57%30.09 "HgN/A
6:00 PM79 °FScattered clouds.3 mph54%30.09 "HgN/A
5:00 PM81 °FScattered clouds.6 mph51%30.09 "HgN/A
4:30 PM81 °FScattered clouds.6 mph51%30.09 "HgN/A
4:00 PM82 °FScattered clouds.6 mph48%30.09 "HgN/A
3:00 PM81 °FScattered clouds.6 mph51%30.09 "HgN/A
2:30 PM81 °FScattered clouds.6 mph51%30.12 "HgN/A
2:00 PM81 °FScattered clouds.8 mph51%30.12 "HgN/A
Weather by CustomWeather, © 2015

See weather overviewHow to use our weather pages